Simultaneous Nadir Overpasses (SNOs) Predictions

Prediction of SNOs between GOES-16 and NOAA-20 Satellite Orbit:

Table of predicted SNOs for the next 14.0 days since TLE Epoch: 4/5/2019
Index Date Time (GOES-16) GOES-16 Lat,Lon NOAA-20 Lat,Lon Distance(km) Time Diff (sec)
1 04/06/2019 06:11:20 -0.00, -75.20 -0.74, -71.98 367.11 80
2 04/07/2019 18:33:16 0.00, -75.21 -0.45, -77.29 236.38 80
3 04/08/2019 18:17:11 -0.00, -75.21 0.52, -72.75 280.33 80
4 04/10/2019 06:38:59 -0.00, -75.21 0.60, -78.03 320.68 80
5 04/11/2019 06:17:34 0.00, -75.21 -0.37, -73.49 195.97 80
6 04/12/2019 18:39:30 -0.00, -75.22 -0.81, -78.80 407.39 80
7 04/13/2019 18:23:26 -0.00, -75.23 0.22, -74.27 109.53 80
8 04/15/2019 06:45:13 0.00, -75.23 0.96, -79.54 490.60 80
9 04/16/2019 06:23:48 0.00, -75.24 -0.07, -75.01 26.75 80
10 04/18/2019 18:26:59 -0.00, -75.28 -0.13, -75.78 57.78 80




NCC Satellite Simultaneous Nadir Overpasses (SNOs) Prediction Service
